Flag for Germany Weather past 2 weeks in Freital, Saxony, Germany

Now
57 °F

Overcast.


Feels Like: 57 °F
Forecast: 50 / 62 °F
Wind: 5 mph from South

Location: Dresden-Klotzsche

Current Time: Aug 23, 2014 at 6:36:41 AM

Latest Report: Aug 23, 2014 at 6:00 AM


Visibility: 25 mi

Pressure: 29.90 "Hg

Humidity: 61%

Dew point: 44 °F

Location of FreitalLocation

Historic Weather in Freital — Graph

°F

Freital temperature yesterday

Maximum temperature yesterday: 69 °F (at 5:00 PM)
Minimum temperature yesterday: 49 °F (at 6:00 AM)
Average temperature yesterday: 59 °F

Past Weeks' High & Low Weather Summary

 TemperatureHumidityPressure
High85 °F (Aug 10, 6:00 PM)96% (Aug 8, 7:00 AM)30.03 "Hg (Aug 8, 7:00 AM)
Low49 °F (Aug 22, 6:00 AM)36% (Aug 12, 4:00 PM)29.65 "Hg (Aug 13, 7:00 PM)
Average63 °F67%29.89 "Hg
* Reported Aug 8 4:00 AM — Aug 23 4:00 AM, Freital, Weather by CustomWeather, © 2014

Note: Actual official high and low records may vary slightly from our data, if they occured in-between our weather recording intervals... More about our weather records

Advertising

Freital weather history for previous 24 hours

 ConditionsComfort  
Time TempWeatherWind HumidityBarometerVisibility
4:00 AM
Aug 23
57 °FOvercast.5 mph60%29.91 "Hg22 mi
3:00 AM56 °FPassing clouds.5 mph61%29.92 "Hg22 mi
2:00 AM56 °FPassing clouds.5 mph63%29.92 "Hg22 mi
1:00 AM57 °FPassing clouds.5 mph62%29.93 "Hg22 mi
12:00 AM57 °FPassing clouds.5 mph64%29.93 "Hg22 mi
11:00 PM
Aug 22
58 °FOvercast.3 mph63%29.93 "Hg22 mi
10:00 PM59 °FPassing clouds.2 mph58%29.93 "Hg25 mi
9:00 PM60 °FPassing clouds.2 mph55%29.92 "Hg25 mi
8:00 PM63 °FPartly sunny.2 mph46%29.91 "Hg25 mi
7:00 PM66 °FOvercast.5 mph41%29.90 "Hg25 mi
6:00 PM69 °FOvercast.7 mph38%29.90 "Hg22 mi
5:00 PM69 °FOvercast.5 mph37%29.91 "Hg22 mi
4:00 PM68 °FOvercast.5 mph36%29.92 "Hg25 mi
3:00 PM69 °FOvercast.5 mph36%29.93 "Hg25 mi
2:00 PM68 °FPartly sunny.6 mph38%29.94 "Hg25 mi
1:00 PM68 °FPartly sunny.5 mph40%29.95 "Hg25 mi
12:00 PM66 °FPartly sunny.2 mph43%29.97 "Hg25 mi
11:00 AM63 °FPartly sunny.3 mph56%29.98 "Hg22 mi
10:00 AM58 °FOvercast.3 mph71%29.99 "Hg22 mi
9:00 AM54 °FOvercast.5 mph75%30.00 "Hg25 mi
8:00 AM52 °FScattered clouds.3 mph78%30.00 "Hg25 mi
7:00 AM50 °FScattered clouds.5 mph82%30.00 "Hg22 mi
6:00 AM49 °FPassing clouds.5 mph84%30.00 "Hg25 mi
Weather by CustomWeather, © 2014

See weather overviewHow to use our weather pages